Weather History for Frankfurt / M-Flughafen, Germany

Change the Weather History Date:

Monday, February 17, 2014

  Actual Average Record
Temperature  
Mean Temperature 40 °F -  
Max Temperature 50 °F 47 °F - ()
Min Temperature 30 °F 33 °F - ()
Degree Days  
Heating Degree Days 25    
Moisture  
Dew Point 36 °F    
Average Humidity 89    
Maximum Humidity 100    
Minimum Humidity 60    
Precipitation  
Precipitation 0.00 in - - ()
Sea Level Pressure  
Sea Level Pressure 30.00 in    
Wind  
Wind Speed 3 mph ()    
Max Wind Speed 9 mph    
Max Gust Speed -    
Visibility 5.7 miles    
Events Fog    
T = Trace of Precipitation, MM = Missing Value Source: Averaged Metar Reports

Daily Weather History Graph

Daily Weather History Graph

Search for Another Location

Airport:

Trip Planner

Search our weather history database for the weather conditions in past years. The results will help you decide how hot, cold, wet, or windy it might be!

Date:

Astronomy

Feb. 17, 2014 Rise Set
Actual Time 7:32 AM CET 5:47 PM CET
Civil Twilight 6:59 AM CET 6:20 PM CET
Nautical Twilight 6:21 AM CET 6:58 PM CET
Astronomical Twilight 5:44 AM CET 7:35 PM CET
Moon 8:46 PM CET (2/17) 8:07 AM CET (2/17)
Length of Visible Light 11h 20m
Length of Day
10h 14m
Waning Gibbous, 94% of the Moon is Illuminated
Feb 17
Waning Gibbous
Feb 22
Last Quarter
Mar 1
New
Mar 8
First Quarter
Mar 16
Full

Hourly Weather History & Observations

Time (CET) Temp. Windchill Dew Point Humidity Pressure Visibility Wind Dir Wind Speed Gust Speed Precip Events Conditions
12:00 AM 36 °F - 35 °F 94% 29.96 in 31 mi SSE 4.5 mph - -  
12:20 AM 37.4 °F 32.1 °F 37.4 °F 100% 29.95 in - South 6.9 mph - N/A   Clear
12:50 AM 35.6 °F 31.7 °F 35.6 °F 100% 29.95 in 6.2 mi South 4.6 mph - N/A Fog Patches of Fog
1:00 AM 36 °F - 35 °F 92% 29.97 in 31 mi South 4.5 mph - -  
1:20 AM 33.8 °F - 33.8 °F 100% 29.95 in 6.2 mi West 2.3 mph - N/A Fog Patches of Fog
1:50 AM 33.8 °F - 33.8 °F 100% 29.95 in 6.2 mi NE 2.3 mph - N/A Fog Patches of Fog
2:00 AM 33 °F - 32 °F 95% 29.97 in 22 mi NE 2.2 mph - -  
2:20 AM 32.0 °F - 32.0 °F 100% 29.95 in 6.2 mi SSE 2.3 mph - N/A Fog Patches of Fog
2:50 AM 32.0 °F - 32.0 °F 100% 29.95 in 6.2 mi South 2.3 mph - N/A Fog Patches of Fog
3:00 AM 32 °F - 30 °F 91% 29.97 in 19 mi South 2.2 mph - -  
3:20 AM 32.0 °F - 32.0 °F 100% 29.95 in 6.2 mi Variable 1.2 mph - N/A Fog Patches of Fog
3:50 AM 32.0 °F - 32.0 °F 100% 29.95 in 6.2 mi SSE 2.3 mph - N/A Fog Patches of Fog
4:20 AM 32.0 °F - 32.0 °F 100% 29.95 in 6.2 mi NNE 1.2 mph - N/A Fog Patches of Fog
4:50 AM 32.0 °F - 32.0 °F 100% 29.95 in 5.0 mi Variable 1.2 mph - N/A Fog Patches of Fog
5:00 AM 32 °F - 31 °F 95% 29.97 in 5 mi NW 2.2 mph - -   Partly Cloudy
5:20 AM 33.8 °F 30.8 °F 33.8 °F 100% 29.95 in 3.7 mi West 3.5 mph - N/A Fog Patches of Fog
5:50 AM 35.6 °F - 35.6 °F 100% 29.95 in 3.7 mi NW 1.2 mph - N/A   Scattered Clouds
6:00 AM 35 °F - 34 °F 95% 29.99 in 4 mi NW 2.2 mph - -   Mist
6:20 AM 33.8 °F - 33.8 °F 100% 29.95 in 5.0 mi NE 2.3 mph - N/A   Scattered Clouds
6:50 AM 33.8 °F - 33.8 °F 100% 29.95 in 4.3 mi NNE 1.2 mph - N/A Fog Patches of Fog
7:00 AM 34 °F - 33 °F 96% 29.99 in 4 mi NNE 2.2 mph - -   Mist
7:20 AM 33.8 °F - 33.8 °F 100% 29.98 in 3.1 mi Variable 1.2 mph - N/A Fog Patches of Fog
7:50 AM 33.8 °F - 33.8 °F 100% 29.98 in 2.8 mi Variable 2.3 mph - N/A Fog Patches of Fog
8:00 AM 33 °F - 32 °F 94% 30.01 in 1 mi ESE 2.2 mph - - Fog Light Fog
8:20 AM 33.8 °F - 33.8 °F 100% 29.98 in 2.2 mi South 2.3 mph - N/A Fog Patches of Fog
8:50 AM 35.6 °F - 35.6 °F 100% 29.98 in 0.9 mi SSW 2.3 mph - N/A Fog Patches of Fog
9:00 AM 35 °F - 34 °F 92% 30.01 in 1 mi SSW 2.2 mph - - Fog Light Fog
9:20 AM 37.4 °F 34.9 °F 37.4 °F 100% 29.98 in 3.1 mi SW 3.5 mph - N/A Fog Patches of Fog
9:50 AM 37.4 °F 34.9 °F 37.4 °F 100% 30.01 in 2.5 mi SSW 3.5 mph - N/A   Mostly Cloudy
10:20 AM 37.4 °F 33.8 °F 37.4 °F 100% 29.98 in 1.4 mi SSW 4.6 mph - N/A Fog Patches of Fog
10:50 AM 37.4 °F 33.8 °F 37.4 °F 100% 30.01 in 1.4 mi South 4.6 mph - N/A Fog Patches of Fog
11:00 AM 38 °F - 37 °F 96% 30.03 in 1 mi South 4.5 mph - - Fog Light Fog
11:20 AM 39.2 °F 34.2 °F 39.2 °F 100% 30.01 in 2.8 mi SW 6.9 mph - N/A   Mostly Cloudy
11:50 AM 41.0 °F 36.4 °F 41.0 °F 100% 30.01 in 4.3 mi SW 6.9 mph - N/A   Mostly Cloudy
12:00 PM 40 °F - 38 °F 91% 30.04 in 4 mi SW 6.7 mph - -   Mist
12:20 PM 42.8 °F 40.1 °F 41.0 °F 93% 30.01 in 6.2 mi WSW 4.6 mph - N/A   Scattered Clouds
12:50 PM 44.6 °F 42.2 °F 39.2 °F 81% 30.01 in 6.2 mi WSW 4.6 mph - N/A   Partly Cloudy
1:00 PM 44 °F - 40 °F 79% 30.03 in 9 mi WSW 4.5 mph - -   Partly Cloudy
1:20 PM 44.6 °F 41.4 °F 39.2 °F 81% 30.01 in 6.2 mi West 5.8 mph - N/A   Scattered Clouds
1:50 PM 46.4 °F 44.3 °F 39.2 °F 76% 30.01 in 6.2 mi West 4.6 mph - N/A   Mostly Cloudy
2:00 PM 47 °F - 40 °F 70% 30.02 in 14 mi West 4.5 mph - -   Mostly Cloudy
2:20 PM 50.0 °F - 41.0 °F 71% 30.01 in 6.2 mi WSW 9.2 mph - N/A   Scattered Clouds
2:50 PM 48.2 °F - 39.2 °F 71% 30.01 in 6.2 mi West 6.9 mph - N/A   Partly Cloudy
3:00 PM 50 °F - 40 °F 60% 30.01 in 17 mi West 6.7 mph - -   Scattered Clouds
3:20 PM 50.0 °F - 41.0 °F 71% 30.01 in 6.2 mi WSW 6.9 mph - N/A   Partly Cloudy
3:50 PM 50.0 °F - 39.2 °F 66% 30.01 in 6.2 mi SW 9.2 mph - N/A   Partly Cloudy
4:20 PM 50.0 °F - 39.2 °F 66% 30.01 in 6.2 mi SW 8.1 mph - N/A   Partly Cloudy
4:50 PM 48.2 °F - 39.2 °F 71% 30.01 in 6.2 mi SW 6.9 mph - N/A   Scattered Clouds
5:00 PM 49 °F - 40 °F 61% 30.02 in 19 mi SW 6.7 mph - -   Partly Cloudy
5:20 PM 48.2 °F - 39.2 °F 71% 30.01 in 6.2 mi SSW 4.6 mph - N/A   Scattered Clouds
5:50 PM 48.2 °F - 41.0 °F 76% 30.01 in 6.2 mi South 3.5 mph - N/A   Mostly Cloudy
6:00 PM 48 °F - 40 °F 66% 30.03 in 25 mi South 2.2 mph - -   Mostly Cloudy
6:20 PM 48.2 °F - 39.2 °F 71% 30.01 in 6.2 mi Variable 1.2 mph - N/A   Mostly Cloudy
6:50 PM 46.4 °F - 39.2 °F 76% 30.04 in - ENE 1.2 mph - N/A   Clear
7:00 PM 46 °F - 40 °F 72% 30.05 in 31 mi ENE 2.2 mph - -   Mostly Cloudy
7:20 PM 44.6 °F - 39.2 °F 81% 30.04 in - ENE 1.2 mph - N/A   Clear
7:50 PM 44.6 °F - 39.2 °F 81% 30.04 in - Variable 2.3 mph - N/A   Clear
8:00 PM 44 °F - 38 °F 74% 30.05 in 31 mi NE 2.2 mph - -   Scattered Clouds
8:20 PM 42.8 °F - 37.4 °F 81% 30.04 in - Variable 1.2 mph - N/A   Clear
8:50 PM 41.0 °F - 37.4 °F 87% 30.04 in - Variable 1.2 mph - N/A   Clear
9:00 PM 41 °F - 37 °F 81% 30.06 in 25 mi ESE 2.2 mph - -   Scattered Clouds
9:20 PM 39.2 °F - 37.4 °F 93% 30.04 in - North 2.3 mph - N/A   Clear
9:50 PM 39.2 °F 37.0 °F 37.4 °F 93% 30.04 in - NE 3.5 mph - N/A   Clear
10:20 PM 37.4 °F 34.9 °F 35.6 °F 93% 30.04 in - NE 3.5 mph - N/A   Clear
10:50 PM 35.6 °F 32.8 °F 35.6 °F 100% 30.04 in - NE 3.5 mph - N/A   Clear
11:00 PM 36 °F - 34 °F 89% 30.07 in 22 mi NE 2.2 mph - -   Scattered Clouds
11:20 PM 33.8 °F 30.8 °F 33.8 °F 100% 30.04 in - NE 3.5 mph - N/A   Clear
11:50 PM 33.8 °F 30.8 °F 33.8 °F 100% 30.04 in - NE 3.5 mph - N/A   Clear